Weather reports worldwide

Advertisment
Brescia/Ghedi, Italy (16088): temperature & dewpoint: 26.10.2020 01:00:00 - 01.11.2020 01:00:00 (CET)Brescia/Ghedi, Italy (16088): wind speed: 26.10.2020 01:00:00 - 01.11.2020 01:00:00 (CET)Brescia/Ghedi, Italy (16088): wind direction: 26.10.2020 01:00:00 - 01.11.2020 01:00:00 (CET)Brescia/Ghedi, Italy (16088): reduced air pressure: 26.10.2020 01:00:00 - 01.11.2020 01:00:00 (CET)Brescia/Ghedi, Italy (16088): visibility: 26.10.2020 01:00:00 - 01.11.2020 01:00:00 (CET)
Date & Time tt [°C] td [°C] ff [km/h] ff [kn] dd ppp [hPa] vv [km]
01.11.2020 01:00:00 11,0 7,5 5 3 WNW 1022,5 0,1
01.11.2020 00:00:00 11,2 7,9 5 3 W 1022,4 0,3
31.10.2020 23:00:00 11,4 8,1 4 2 WNW 1022,4 0,1
31.10.2020 22:00:00 11,5 8,2 5 3 W 1022,4 0,1
31.10.2020 21:00:00 11,5 8,2 5 3 W 1022,2 0,1
31.10.2020 20:00:00 11,8 8,7 5 3 W 1022,2 0,1
31.10.2020 19:00:00 11,8 8,8 8 4 W 1022,2 0,1
31.10.2020 18:00:00 12,0 9,4 4 2 WNW 1022,0 0,2
31.10.2020 17:00:00 12,2 10,3 5 3 W 1021,8 0,2
31.10.2020 16:00:00 13,2 11,2 4 2 SW 1021,9 1,6
31.10.2020 15:00:00 14,0 11,2 5 3 WSW 1022,2 2,5
31.10.2020 14:00:00 15,0 10,8 5 3 SW 1022,7 3,5
31.10.2020 13:00:00 14,5 10,3 5 3 SW 1023,1 3,5
31.10.2020 12:00:00 13,5 9,9 8 4 W 1023,5 2,5
31.10.2020 11:00:00 12,0 9,0 8 4 W 1024,1 2,5
31.10.2020 10:00:00 10,2 7,6 4 2 W 1024,4 3,5
31.10.2020 09:00:00 8,5 6,1 2 1 WSW 1024,3 2,8
31.10.2020 08:00:00 7,2 4,9 2 1 NNE 1023,8 2,5
31.10.2020 07:00:00 6,4 4,1 4 2 NNE 1023,9 2,5
31.10.2020 06:00:00 7,0 4,7 5 3 NNW 1024,1 2,5
31.10.2020 05:00:00 8,0 5,6 2 1 NNW 1024,3 2,5
31.10.2020 04:00:00 7,6 5,2 5 3 N 1024,3 2,5
31.10.2020 03:00:00 8,0 5,6 9 5 N 1024,3 2,5
31.10.2020 02:00:00 8,0 5,8 2 1 N 1024,3 2,5
31.10.2020 01:00:00 8,4 6,2 2 1 NNE 1024,3 2,5
31.10.2020 00:00:00 8,9 6,7 5 3 N 1024,3 2,6
30.10.2020 23:00:00 9,2 7,2 4 2 NNE 1024,3 2,6
30.10.2020 22:00:00 9,4 7,5 5 3 NNE 1024,1 2,6
30.10.2020 21:00:00 10,2 8,3 4 2 NNE 1023,8 2,6
30.10.2020 20:00:00 11,1 9,2 4 2 NE 1023,7 3,0
30.10.2020 19:00:00 11,8 9,7 2 1 NNE 1023,2 5
30.10.2020 18:00:00 14,0 11,0 2 1 ENE 1022,5 5
30.10.2020 17:00:00 15,0 10,2 4 2 S 1022,4 5
30.10.2020 16:00:00 15,1 9,7 4 2 SW 1022,6 10
30.10.2020 15:00:00 15,1 10,1 5 3 SSW 1022,6 10
30.10.2020 14:00:00 15,0 9,4 4 2 S 1022,6 10
30.10.2020 13:00:00 14,1 8,7 4 2 WSW 1023,3 10
30.10.2020 12:00:00 13,1 8,2 5 3 SW 1023,3 10
30.10.2020 11:00:00 12,0 8,3 4 2 WNW 1023,1 10
30.10.2020 10:00:00 10,4 7,7 4 2 NNE 1022,8 8
30.10.2020 09:00:00 7,3 5,0 4 2 N 1022,4 8
30.10.2020 08:00:00 7,0 4,8 4 2 NNW 1022,3 7
30.10.2020 07:00:00 6,8 4,6 4 2 NNW 1022,6 5
30.10.2020 06:00:00 7,4 5,4 2 1 NW 1022,3 8
30.10.2020 05:00:00 7,6 5,6 4 2 NNE 1022,0 8
30.10.2020 04:00:00 7,8 5,8 4 2 NW 1021,9 8
30.10.2020 03:00:00 8,0 6,0 4 2 NE 1021,9 8
30.10.2020 02:00:00 8,2 6,2 4 2 N 1021,9 8
30.10.2020 01:00:00 8,4 6,4 2 1 W 1021,6 6
30.10.2020 00:00:00 9,0 7,1 5 3 N 1021,6 6
29.10.2020 23:00:00 9,2 7,3 2 1 NNW 1021,6 5
29.10.2020 22:00:00 9,4 7,7 4 2 SW 1021,4 4,0
29.10.2020 21:00:00 10,0 8,4 4 2 NNE 1020,8 7
29.10.2020 20:00:00 10,8 9,2 4 2 W 1019,9 8
29.10.2020 19:00:00 11,4 9,8 5 3 W 1019,4 8
29.10.2020 18:00:00 13,2 11,2 4 2 W 1018,7 8
29.10.2020 17:00:00 14,0 10,6 4 2 WSW 1018,2 10
29.10.2020 16:00:00 15,2 10,2 5 3 W 1017,9 10
29.10.2020 15:00:00 15,2 9,8 8 4 W 1017,9 10
29.10.2020 14:00:00 15,0 10,2 8 4 WSW 1019,0 10
29.10.2020 13:00:00 15,0 9,8 8 4 WSW 1019,4 10
29.10.2020 12:00:00 14,1 8,5 8 4 WSW 1019,8 10
29.10.2020 11:00:00 13,0 9,6 4 2 N 1019,8 10
29.10.2020 10:00:00 11,8 8,3 2 1 SSW 1018,8 10
29.10.2020 09:00:00 9,8 7,9 4 2 ENE 1017,8 8
29.10.2020 08:00:00 7,8 5,9 4 2 N 1017,7 7
29.10.2020 07:00:00 7,8 5,9 2 1 NNW 1017,1 7
29.10.2020 06:00:00 8,0 6,1 4 2 N 1016,9 10
29.10.2020 05:00:00 8,0 6,1 4 2 NNE 1017,0 10
29.10.2020 04:00:00 8,2 6,3 4 2 SSW 1016,9 10
29.10.2020 03:00:00 8,0 6,3 4 2 NNW 1017,1 10
29.10.2020 02:00:00 8,4 6,5 4 2 NE 1017,2 10
29.10.2020 01:00:00 8,5 6,6 4 2 NE 1017,5 10
29.10.2020 00:00:00 8,4 6,5 4 2 NNW 1017,7 10
28.10.2020 23:00:00 8,8 6,9 5 3 N 1017,7 10
28.10.2020 22:00:00 9,0 7,3 4 2 E 1017,7 10
28.10.2020 21:00:00 9,0 7,3 5 3 ENE 1017,7 10
28.10.2020 20:00:00 9,6 7,7 2 1 NNW 1017,5 10
28.10.2020 19:00:00 10,4 8,0 4 2 WSW 1017,0 10
28.10.2020 18:00:00 12,0 8,1 4 2 W 1016,3 10
28.10.2020 17:00:00 14,0 7,3 2 1 WSW 1015,8 10
28.10.2020 16:00:00 15,0 6,8 5 3 WSW 1016,5 10
28.10.2020 15:00:00 14,9 7,7 8 4 W 1016,7 10
28.10.2020 14:00:00 14,6 7,2 8 4 WSW 1016,8 10
28.10.2020 13:00:00 14,0 8,0 8 4 WSW 1017,6 10
28.10.2020 12:00:00 13,6 7,8 5 3 WSW 1017,8 10
28.10.2020 11:00:00 12,2 7,5 5 3 WSW 1017,4 10
28.10.2020 10:00:00 11,0 8,2 4 2 SSE 1017,2 10
28.10.2020 09:00:00 8,6 6,4 4 2 W 1016,9 10
28.10.2020 08:00:00 6,6 4,4 4 2 NNW 1016,7 10
28.10.2020 07:00:00 6,2 4,0 5 3 N 1016,1 6
28.10.2020 06:00:00 6,8 4,6 4 2 N 1016,1 4,0
28.10.2020 05:00:00 6,8 4,8 5 3 N 1016,2 4,0
28.10.2020 04:00:00 6,6 4,4 2 1 NNE 1016,2 4,0
28.10.2020 03:00:00 7,1 4,9 4 2 WNW 1016,2 3,0
28.10.2020 02:00:00 7,4 5,2 4 2 NW 1016,1 3,0
28.10.2020 01:00:00 8,0 6,0 5 3 NE 1015,4 3,0
28.10.2020 00:00:00 8,1 6,1 5 3 NE 1015,4 3,5
27.10.2020 23:00:00 8,8 6,9 2 1 NE 1015,4 4,0
27.10.2020 22:00:00 9,0 7,1 5 3 NNW 1015,0 6
27.10.2020 21:00:00 9,8 7,9 4 2 NNE 1013,9 8
27.10.2020 20:00:00 10,2 8,3 2 1 NE 1013,1 10
27.10.2020 19:00:00 11,4 8,6 8 4 SE 1012,1 10
27.10.2020 18:00:00 12,2 8,9 5 3 NW 1010,9 10
27.10.2020 17:00:00 13,8 9,0 9 5 NW 1010,4 15
27.10.2020 16:00:00 14,2 8,4 9 5 W 1009,8 20
27.10.2020 15:00:00 14,0 8,4 11 6 W 1009,7 20
27.10.2020 14:00:00 13,5 8,5 9 5 W 1009,3 15
27.10.2020 13:00:00 12,4 8,5 11 6 WNW 1009,0 15
27.10.2020 12:00:00 12,2 8,5 11 6 W 1008,7 15
27.10.2020 11:00:00 12,0 8,7 5 3 W 1008,4 15
27.10.2020 10:00:00 11,5 8,4 5 3 WSW 1007,3 10
27.10.2020 09:00:00 10,8 8,4 5 3 SSE 1006,7 8
27.10.2020 08:00:00 10,1 7,7 4 2 SE 1005,9 6
27.10.2020 07:00:00 10,7 8,6 4 2 S 1005,9 5
27.10.2020 06:00:00 11,0 8,0 5 3 SW 1005,1 5
27.10.2020 05:00:00 12,5 9,7 8 4 SSW 1004,4 5
27.10.2020 04:00:00 12,9 10,3 16 9 ENE 1004,1 10
27.10.2020 03:00:00 13,0 10,4 15 8 E 1004,2 10
27.10.2020 02:00:00 13,0 10,4 11 6 SE 1004,2 10
27.10.2020 01:00:00 13,3 10,7 9 5 E 1004,1 8
27.10.2020 00:00:00 13,5 10,9 11 6 E 1004,4 8
26.10.2020 23:00:00 13,7 11,2 11 6 E 1004,4 8
26.10.2020 22:00:00 13,7 11,2 13 7 E 1004,4 5
26.10.2020 21:00:00 13,9 11,8 15 8 ENE 1003,6 3,5
26.10.2020 20:00:00 14,0 11,9 16 9 ENE 1004,3 3,5
26.10.2020 19:00:00 14,0 12,0 11 6 ENE 1004,6 3,0
26.10.2020 18:00:00 14,0 12,0 18 10 ENE 1004,4 3,0
26.10.2020 17:00:00 14,1 12,5 16 9 E 1004,4 2,8
26.10.2020 16:00:00 14,2 12,8 16 9 ENE 1004,3 2,8
26.10.2020 15:00:00 14,2 13,1 21 11 ENE 1004,2 3,0
26.10.2020 14:00:00 14,9 12,6 21 11 ENE 1004,9 3,0
26.10.2020 13:00:00 15,1 12,1 22 12 E 1004,7 5
26.10.2020 12:00:00 15,0 12,1 24 13 E 1005,4 10
26.10.2020 11:00:00 14,8 12,1 22 12 ENE 1005,7 10
26.10.2020 10:00:00 14,0 12,0 24 13 E 1005,9 10
26.10.2020 09:00:00 13,2 11,4 24 13 E 1006,6 8
26.10.2020 08:00:00 13,4 10,9 22 12 ENE 1007,6 4,5
26.10.2020 07:00:00 13,6 10,6 18 10 ENE 1008,0 6
26.10.2020 06:00:00 13,6 11,1 18 10 ENE 1008,1 8
26.10.2020 05:00:00 13,6 11,5 9 5 E 1009,0 5
26.10.2020 04:00:00 13,6 11,5 16 9 ENE 1009,2 4,0
26.10.2020 03:00:00 13,8 12,0 15 8 NE 1010,0 3,0
26.10.2020 02:00:00 14,0 12,0 13 7 ESE 1010,8 3,0
26.10.2020 01:00:00 14,0 11,9 11 6 ENE 1011,0 3,5

tt = temperature
td = dewpoint
ff = wind speed
dd = wind direction
ppp = reduced air pressure
vv = visibility

Next stations